TEVEL-4

Last updated on Tue Aug 06 2024 00:02:58 GMT+0000 (Coordinated Universal Time)

1 51063U 22002CH 24217.68533605 .05991808 24509-5 17243-2 0 9997 2 51063 97.3564 297.1077 0014984 266.4742 93.4837 16.27195964142710

Satellite not in orbit

TEVEL-4